Location: ??
(38.5263°N, 106.2240°E)
Time: 06:27:04
(UTC+00:00)

Daily predictions for brighter satellites

Satellite Brightness Start Highest point End
(mag) Time Altitude Azimuth Time Altitude Azimuth Time Altitude Azimuth
Cosmos 1833 Rocket 2.9 12:07:54 10° SSW 12:13:30 83° WNW 12:19:10 10° NNE
BREEZE-M DEB (TANK) 2.3 12:09:52 10° NW 12:16:43 76° NNE 12:19:29 10° ESE
Meteor 2-6 Rocket 4.3 12:11:07 10° N 12:16:43 73° E 12:22:28 10° SSE
Cosmos 1821 Rocket 4.2 12:10:51 10° SSE 12:16:44 51° E 12:22:45 10° NNE
Lacrosse 5 3.8 12:17:20 10° NNW 12:20:48 18° NNE 12:24:17 10° ENE
Cosmos 1697 Rocket 2.8 12:15:44 10° NNW 12:21:17 59° ENE 12:26:49 10° SE
Cosmos 972 Rocket 4.3 12:17:05 10° NNW 12:21:57 69° WSW 12:26:54 10° S
Cosmos 1867 3.6 12:17:47 10° SSW 12:23:12 86° ESE 12:28:41 10° NNE
IRIDIUM 114 4.5 12:18:10 10° SSE 12:23:14 54° E 12:28:19 10° NNE
Meteor 1-4 Rocket 3.9 12:25:46 10° NNE 12:28:25 20° ENE 12:30:48 11° ESE
Cosmos 389 Rocket 2.4 12:25:01 10° N 12:28:29 80° ENE 12:31:59 10° SSE
Cosmos 1954 Rocket 4.3 12:24:36 10° S 12:29:41 47° ESE 12:34:46 10° NNE
Resurs 01 Rocket 3.3 12:27:12 10° ESE 12:30:08 18° ENE 12:33:03 10° NNE
Genesis I 3.8 12:28:11 10° NNW 12:31:52 40° NE 12:35:09 12° ESE
IRIDIUM 103 4.3 12:27:11 10° S 12:32:21 67° E 12:37:32 10° N
USA 186 0.7 12:30:32 10° SSE 12:32:45 73° ENE 12:34:59 10° N
MOS 1 Rocket 3.9 12:28:06 10° N 12:33:30 75° WNW 12:38:37 10° SSW
DMSP B5D2-2 4.2 12:28:27 10° NNE 12:33:35 54° E 12:38:42 10° S
Ariane Rocket 3.0 12:30:12 10° SSE 12:35:14 74° ENE 12:40:17 10° N
Cosmos 220 Rocket 4.4 12:35:11 10° NNW 12:39:21 61° WSW 12:43:32 10° S
Cosmos 1666 Rocket 3.7 12:35:24 10° S 12:39:35 52° E 12:43:48 10° NNE
Cosmos 407 Rocket 4.1 12:34:56 10° SSW 12:40:11 62° WNW 12:45:26 10° NNE
Cosmos 1000 Rocket 4.5 12:35:55 10° N 12:42:06 65° E 12:48:11 10° SSE
Cosmos 2239 Rocket 4.4 12:36:04 10° S 12:42:09 70° E 12:48:16 10° NNE
NOSS 3-2 (A) 3.2 12:37:58 10° SSW 12:43:29 81° ESE 12:49:44 10° NE
Cosmos 1190 Rocket 4.4 12:38:50 10° SSW 12:44:06 72° WNW 12:49:25 10° NNE
Cosmos 2123 Rocket 4.5 12:40:06 10° N 12:45:59 42° ENE 12:51:31 12° SE
X-37B 2.5 12:43:23 10° NW 12:46:03 24° N 12:48:42 10° ENE
Cosmos 1140 Rocket 3.9 12:41:47 10° SSW 12:47:00 70° WNW 12:52:15 10° NNE
IRIDIUM 106 4.4 12:45:25 10° S 12:50:37 82° W 12:55:52 10° N
USA 267 3.8 12:46:05 10° ENE 12:51:55 34° SE 12:57:42 10° S
NOSS 3-2 (C) 3.3 12:48:36 10° SSW 12:53:59 57° ESE 13:00:03 10° NE
Cosmos 405 Rocket 3.8 12:54:40 20° ESE 12:55:36 23° E 12:58:35 10° NE
Resurs 1-3 3.8 12:56:03 16° SSE 12:59:26 54° ENE 13:03:44 10° N
Meteor 1-27 Rocket 3.8 12:54:29 10° N 13:00:28 86° E 13:06:23 10° S
SJ-6B 3.2 12:57:21 10° S 13:01:22 67° WSW 13:05:19 10° NNW
Cosmos 1812 3.7 12:58:45 10° NNW 13:02:28 48° W 13:06:09 10° SSW
ARGOS 4.4 12:59:52 10° S 13:04:56 42° W 13:10:01 10° NNW
Cosmos 1633 Rocket 3.0 13:02:14 10° S 13:06:39 89° E 13:11:05 10° N
Cosmos 2084 Rocket 3.3 13:02:53 10° SSW 13:06:59 62° ESE 13:11:11 10° NE
FREGAT/IRIS 4.3 13:08:22 10° SSW 13:10:41 27° W 13:13:00 10° NW
CZ-2C R/B 3.1 13:05:34 10° N 13:10:42 63° WNW 13:15:54 10° SSW
H-2A R/B 4.2 13:07:52 10° NE 13:11:34 31° E 13:12:30 28° ESE
Cosmos 921 Rocket 3.3 13:12:21 10° N 13:16:24 46° ENE 13:17:50 32° ESE
SL-16 R/B 3.4 13:12:02 10° N 13:16:48 27° ENE 13:18:59 21° E
OBJECT-B 0.9 13:16:51 24° S 13:18:40 73° WSW 13:21:59 10° NNW
Yuri Rocket 4.4 13:15:28 10° SW 13:18:44 20° S 13:18:55 20° S
ATLAS 3B R/B 3.2 13:14:14 10° S 13:19:53 31° ESE 13:25:32 10° NE
Meteor 2-20 Rocket 4.4 13:14:52 10° N 13:21:02 70° E 13:25:22 20° SSE
Cosmos 2082 Rocket 3.7 13:16:15 10° SW 13:21:33 39° WNW 13:26:52 10° N
Intercosmos 25 4.4 13:19:24 10° NNW 13:22:33 36° W 13:25:30 10° SSW
Cosmos 192 4.2 13:17:59 10° NNW 13:22:55 84° ENE 13:25:39 27° SSE
Cosmos 1184 Rocket 3.5 13:21:06 10° SSW 13:24:20 55° W 13:27:34 10° N
Okean 1 3.9 13:29:31 10° N 13:33:21 39° E 13:33:28 38° E
Meteor 1-25 Rocket 4.1 13:28:23 10° S 13:33:56 87° E 13:39:36 10° N
Cosmos 2322 Rocket 3.2 13:29:24 10° N 13:34:24 30° ENE 13:35:59 26° E
Cosmos 2278 4.2 13:29:49 10° NNW 13:35:23 56° WSW 13:39:18 19° S
Cosmos 1934 Rocket 4.5 13:29:54 10° SSW 13:36:11 63° W 13:42:30 10° N
Cosmos 1470 Rocket 3.6 13:32:23 14° S 13:36:12 78° W 13:40:35 10° N
ERS-1 Rocket 4.3 13:36:14 22° ENE 13:36:44 23° ENE 13:40:37 10° NNE
Cosmos 2242 Rocket 3.8 13:34:24 10° N 13:38:40 48° E 13:39:08 45° E
Cosmos 1850 Rocket 3.9 13:34:57 10° SSW 13:40:15 82° ESE 13:45:32 10° NNE
SPOT 1/Viking Rocket 4.1 13:40:59 35° E 13:42:01 39° ENE 13:46:51 10° N
Meteor 1-18 Rocket 4.3 13:36:50 10° N 13:42:18 55° ENE 13:43:53 41° SE
Cosmos 2360 Rocket 3.8 13:39:28 10° N 13:43:33 20° NE 13:44:46 19° ENE
USA 32 4.1 13:39:35 16° S 13:43:47 81° W 13:49:02 10° N
CENTAUR R/B 2.8 13:42:27 10° SW 13:48:08 64° NW 13:54:54 10° NNE
Cosmos 841 Rocket 4.5 13:44:28 10° N 13:49:04 30° ENE 13:49:35 30° ENE
SL-27 R/B 3.2 13:50:36 41° NNE 13:50:36 41° NNE 13:52:52 10° NNE
Terra 3.5 13:52:22 19° ENE 13:52:22 19° ENE 13:55:20 10° NNE
Cosmos 1980 Rocket 3.1 13:47:20 10° NW 13:52:40 44° WSW 13:55:56 22° SSW
Cosmos 1238 Rocket 3.2 13:55:11 42° WNW 13:55:11 42° WNW 13:57:52 10° N
Cosmos 1862 Rocket 4.4 13:51:03 10° NNW 13:55:19 48° W 13:57:17 28° SSW
Cosmos 468 Rocket 3.9 13:52:40 10° NNW 13:57:59 82° ENE 13:59:07 56° SSE
IGS 5A 3.3 14:03:48 80° NE 14:03:48 80° NE 14:07:50 10° N
Lacrosse 5 1.7 13:59:26 10° NW 14:04:31 77° NE 14:05:06 67° ESE
Resurs 01 Rocket 2.7 14:04:39 29° SW 14:06:16 40° W 14:10:28 10° NNW
Cosmos 44 3.8 14:01:45 10° NNW 14:06:36 49° NE 14:06:56 48° ENE
CARTOSAT-1 4.4 14:12:02 39° NE 14:12:02 39° NE 14:15:18 10° N
Spot 2 Rocket 3.4 14:10:30 67° SSE 14:11:14 90° WNW 14:16:21 10° NNW
GP-B 4.3 14:12:58 10° NNW 14:17:06 39° W 14:18:47 28° SW
X-37B 3.1 14:19:58 10° WNW 14:21:21 23° NW 14:21:21 23° NW
Cosmos 2333 Rocket 4.0 14:23:05 10° N 14:27:04 19° NE 14:27:22 19° ENE
Cosmos 1869 Rocket 4.1 14:29:14 57° N 14:29:14 57° N 14:32:51 10° N
Meteor 1-5 Rocket 4.2 14:30:33 77° SE 14:30:53 81° E 14:36:49 10° NNE
Cosmos 1763 Rocket 3.9 14:27:30 10° NNW 14:32:41 55° WSW 14:33:07 53° WSW
Cosmos 1570 Rocket 4.0 14:28:13 10° NNW 14:33:15 75° NNE 14:33:15 75° NNE
USA 267 3.6 14:28:39 10° NE 14:35:06 64° NW 14:41:33 10° WSW
Okean 1-7 3.8 14:30:54 10° NNW 14:34:24 49° NW 14:34:24 49° NW
Cosmos 2100 Rocket 3.9 14:38:10 64° SSW 14:39:09 80° W 14:45:20 10° N
SPOT 5 3.5 14:40:43 44° N 14:40:43 44° N 14:43:46 10° N
Meteor 1-11 Rocket 4.1 14:41:53 54° NE 14:41:53 54° NE 14:46:33 10° NNE
Cosmos 2173 Rocket 3.9 14:42:52 68° SW 14:43:37 79° W 14:49:45 10° N
Cosmos 2208 Rocket 4.2 14:39:26 10° NNW 14:43:54 64° N 14:43:54 64° N
Cosmos 1725 Rocket 4.1 14:56:39 64° NE 14:56:39 64° NE 15:02:11 10° NNE
Meteor 2-4 Rocket 4.0 14:51:10 10° NNW 14:56:20 58° W 14:56:20 58° W
Cosmos 1459 Rocket 4.3 14:55:50 55° WSW 14:56:52 63° W 15:03:11 10° N
Cosmos 2219 Rocket 3.6 14:53:26 10° N 14:57:35 27° NE 14:57:35 27° NE
SL-16 R/B 3.0 14:55:43 10° NW 15:00:51 42° W 15:00:51 42° W
Cosmos 2016 Rocket 4.0 15:03:55 81° NW 15:03:55 81° NW 15:10:09 10° N
Cosmos 540 Rocket 4.3 15:01:10 10° NNW 15:05:11 46° WNW 15:05:11 46° WNW
USA 234 3.7 15:06:58 49° ENE 15:07:45 52° NE 15:14:01 10° NW
Lacrosse 4 Rocket 3.8 15:12:38 19° N 15:12:38 19° N 15:13:59 10° NNE
ATLAS 3B R/B 3.4 15:03:56 10° SW 15:10:16 48° NW 15:16:40 10° NNE
ERS-1 Rocket 4.2 15:16:14 35° WNW 15:16:14 35° WNW 15:19:58 10° NNW
Cosmos 2322 Rocket 3.3 15:13:16 10° NW 15:17:48 36° W 15:17:48 36° W
Cosmos 2360 Rocket 3.1 15:22:24 10° NNW 15:26:31 45° NW 15:26:31 45° NW
Terra 3.5 15:31:15 30° NW 15:31:15 30° NW 15:33:58 10° NNW
Cosmos 2233 Rocket 4.5 15:35:50 57° N 15:35:50 57° N 15:40:45 10° N
COSMOS 2428 3.9 15:48:10 10° NNW 15:51:48 40° N 15:51:48 40° N
Cosmos 2237 Rocket 3.9 15:54:02 10° N 15:57:23 26° NNE 15:57:23 26° NNE
Cosmos 2333 Rocket 3.6 16:06:08 10° NNW 16:09:22 34° NW 16:09:22 34° NW
Cosmos 2227 Rocket 4.1 16:34:47 23° NE 16:34:47 23° NE 16:36:50 10° NNE
Cosmos 2219 Rocket 4.1 16:37:03 10° NW 16:39:17 22° NW 16:39:17 22° NW
SL-16 R/B 3.8 17:08:52 10° N 17:12:10 31° NNE 17:12:10 31° NNE
Cosmos 2297 Rocket 3.8 17:26:49 29° NNW 17:26:49 29° NNW 17:29:59 10° N
Cosmos 2237 Rocket 4.4 17:37:52 10° NW 17:39:10 17° NW 17:39:10 17° NW
NOSS 3-1 (C) 4.4 17:54:35 39° NNE 17:54:35 39° NNE 17:58:29 10° NNE
SJ 16-02 4.0 17:56:41 17° N 17:56:41 17° N 17:57:45 10° N
Cosmos 2344 4.4 17:45:48 10° NW 17:56:03 73° WSW 17:57:27 69° SSW
CZ-2D R/B 3.7 17:57:49 10° NNE 18:01:08 31° NE 18:01:08 31° NE
ATLAS CENTAUR R/B 4.5 18:15:34 10° ENE 18:15:34 10° ENE 18:15:40 10° ENE
Cosmos 2227 Rocket 4.2 18:16:35 20° NW 18:16:35 20° NW 18:19:50 10° N
USA 229 DEB 4.1 18:31:00 50° NW 18:31:00 50° NW 18:37:06 10° NNE
USA 229 4.1 18:31:08 50° NW 18:31:08 50° NW 18:37:12 10° NNE
Cosmos 2098 Rocket 4.3 18:25:29 10° N 18:30:47 66° NE 18:30:47 66° NE
Resurs 1-4 Rocket 3.1 18:28:46 10° NNE 18:32:19 44° NNE 18:32:19 44° NNE
SL-16 R/B 2.7 18:40:24 69° N 18:40:24 69° N 18:45:51 10° NNW
Atlas Centaur 2 4.3 18:44:07 18° ESE 18:44:07 18° ESE 18:46:12 10° ESE
NOSS 3-1 (A) 4.0 18:42:53 47° NNW 18:42:53 47° NNW 18:47:56 10° NNE
Cosmos 2263 Rocket 2.7 18:53:37 52° N 18:53:37 52° N 18:57:57 10° NNE
Cosmos 1953 4.4 18:56:35 26° NNE 18:56:35 26° NNE 18:58:31 10° NNE
BREEZE-M TANK 3.8 18:57:08 44° NE 18:57:08 44° NE 19:03:15 10° E
CZ-4B R/B 4.3 18:52:33 10° NNE 18:55:57 45° NE 18:55:57 45° NE
ADEOS II 2.5 18:59:05 10° NNE 19:03:50 57° ENE 19:03:50 57° ENE
USA 215 3.8 19:03:11 10° ENE 19:09:20 42° SE 19:09:55 41° SE
Meteor 2-14 Rocket 4.4 19:06:03 10° N 19:12:08 75° E 19:12:46 68° SE
Cosmos 1844 Rocket 3.7 19:14:31 35° ESE 19:15:13 37° ESE 19:20:16 10° NE
CBERS-1 4.2 19:10:19 10° NNE 19:14:49 69° NNE 19:14:49 69° NNE
Meteor 2-10 4.3 19:17:28 64° NW 19:17:28 64° NW 19:22:33 10° N
ARIANE 5 R/B 3.4 19:13:46 10° NNE 19:18:44 41° E 19:19:30 39° ESE
GEOS 3 Rocket 4.2 19:14:15 10° NNE 19:19:22 50° NW 19:19:22 50° NW
Cosmos 2150 Rocket 4.2 19:27:24 61° NW 19:27:24 61° NW 19:32:05 10° NNE
Meteor 1-28 Rocket 4.4 19:31:08 40° ENE 19:31:08 40° ENE 19:34:30 10° N
Cosmos 1606 Rocket 4.4 19:30:52 45° ESE 19:31:06 45° E 19:35:22 10° NNE
Cosmos 1726 4.4 19:33:51 17° NNW 19:33:51 17° NNW 19:34:55 10° N
Meteor 1-21 Rocket 4.1 19:30:09 10° NNW 19:35:26 68° W 19:35:26 68° W
Cosmos 1125 Rocket 3.3 19:36:57 83° W 19:37:01 83° WNW 19:42:19 10° NNE
OAO 2 Rocket 3.8 19:40:22 50° SE 19:40:22 50° SE 19:44:51 10° E
Cosmos 1300 4.5 19:39:20 25° ESE 19:40:01 26° E 19:43:14 10° NNE
Cosmos 2285 Rocket 4.0 19:39:43 58° WSW 19:40:29 62° WNW 19:46:44 10° NNE
CZ-2D R/B 3.5 19:38:23 10° NNW 19:42:27 25° WNW 19:42:27 25° WNW
BREEZE-M DEB (TANK) 3.6 19:43:29 47° ESE 19:43:29 47° ESE 19:49:30 10° ENE
Cosmos 1553 Rocket 3.9 19:42:13 49° S 19:43:57 83° E 19:50:06 10° N
Cosmos 2228 3.2 19:44:56 67° ESE 19:45:05 68° E 19:49:28 10° NNE
Cosmos 1726 Rocket 4.2 19:44:45 46° SE 19:45:30 52° E 19:49:50 10° NNE
Cosmos 1356 Rocket 3.8 19:48:26 53° ESE 19:48:43 55° E 19:52:45 10° NNE
IRS-1D 4.1 19:46:04 10° N 19:50:50 42° WNW 19:50:50 42° WNW
ATLAS CENTAUR R/B 2.9 19:51:45 26° NW 19:51:45 26° NW 19:54:30 10° N
IRS-1C 4.1 19:50:26 10° N 19:55:44 66° WNW 19:56:34 57° WSW
CZ-3 Stage 3 4.5 19:57:26 30° SSE 19:57:26 30° SSE 19:59:30 10° SE
Cosmos 1943 4.2 19:51:35 10° NW 19:55:00 30° WNW 19:55:00 30° WNW
BREEZE-M DEB (TANK) 3.5 19:55:57 60° SW 19:56:50 90° ENE 20:09:35 10° ENE
Cosmos 1745 Rocket 4.3 19:53:27 10° N 19:59:41 67° E 20:05:48 10° SSE
Lacrosse 5 rocket 3.5 20:00:52 16° SSE 20:02:29 20° ESE 20:05:47 10° ENE
OAO 1 Rocket 4.4 20:04:31 54° SW 20:05:16 61° S 20:10:33 10° ESE
SL-08 R/B 4.4 20:01:27 10° N 20:07:41 76° W 20:11:29 26° S
NOSS 2-2 (C) 2.9 20:12:20 78° WNW 20:12:22 78° WNW 20:16:06 10° NNE
Resurs 1-4 Rocket 4.1 20:11:02 10° NW 20:13:08 12° WNW 20:13:23 12° WNW
SL-08 R/B 3.5 20:14:12 45° SW 20:15:18 55° W 20:20:10 10° NNW
S3M 4.0 20:12:51 30° SSW 20:16:13 77° W 20:22:37 10° N
IDEFIX/ARIANE 42P 2.5 20:14:32 10° N 20:19:46 78° WNW 20:22:09 33° SSW
Cosmos 1703 4.5 20:18:31 10° NNW 20:21:00 27° WNW 20:21:00 27° WNW
Cosmos 1048 Rocket 4.4 20:17:36 10° NW 20:22:21 38° WSW 20:22:42 38° WSW
ATLAS 3B CENTAUR R/B 4.4 20:08:39 10° W 20:22:30 31° SW 20:29:50 10° SSE
SL-16 R/B 4.4 20:25:30 12° WNW 20:25:30 12° WNW 20:26:42 10° WNW
Delta 2 Rocket 3.8 20:26:08 33° SSE 20:26:08 33° SSE 20:28:45 10° ESE
Cosmos 1758 Rocket 4.2 20:22:35 10° NNW 20:26:19 34° W 20:26:19 34° W
Cosmos 1900 4.3 20:23:14 10° NW 20:28:21 68° WSW 20:33:27 10° SSE
Atlas Centaur 2 3.1 20:26:42 31° SW 20:29:04 42° S 20:36:08 10° ESE
H-2A R/B 2.1 20:28:49 10° SSE 20:32:54 74° ENE 20:36:59 10° N
Cosmos 2058 Rocket 3.0 20:31:53 31° SSW 20:33:58 71° W 20:38:23 10° N
Landsat 5 3.5 20:32:12 10° SSE 20:36:10 75° ENE 20:40:18 10° N
COSMOS 2441 4.3 20:34:15 10° N 20:39:06 85° WNW 20:42:37 19° SSW
Cosmos 1709 Rocket 4.1 20:33:13 10° N 20:39:23 76° E 20:45:27 10° S
Cosmos 1844 4.0 20:36:34 28° SW 20:39:26 54° WNW 20:45:05 10° NNE
Spot 4 Rocket 4.4 20:35:54 10° N 20:40:50 46° WNW 20:43:21 26° SW
ADEOS II 3.7 20:40:12 10° NNW 20:43:27 17° WNW 20:44:46 15° W
Cosmos 1825 Rocket 4.4 20:40:58 10° NNW 20:44:38 28° W 20:45:08 27° WSW
Cosmos 1269 Rocket 3.9 20:41:05 10° NNW 20:46:21 68° WSW 20:51:36 10° S
MSX 3.9 20:42:10 10° N 20:47:53 66° WNW 20:52:31 16° SSW
Hubble Space Telescope 2.3 20:51:26 19° SSW 20:52:08 20° S 20:55:09 10° SE
USA 215 3.6 20:46:03 10° NE 20:52:23 54° NW 20:57:15 18° WSW
Meteor 2-15 Rocket 4.5 20:47:50 15° SSW 20:52:47 60° W 20:58:47 10° N
ATLAS 2AS CENTAUR R/B 4.2 20:47:48 10° S 20:54:56 39° ESE 21:02:12 10° NE
SeaSat 1 3.0 20:50:33 10° NNE 20:55:26 57° ESE 21:00:16 10° SSW
OAO 3 Rocket 4.2 20:54:48 22° WSW 20:56:37 28° SSW 21:00:50 10° SE
Cosmos 1953 Rocket 4.3 20:52:42 10° NNW 20:56:41 32° W 20:59:03 19° SW
ARIANE 5 R/B 3.9 20:53:28 10° NNW 20:57:32 23° WNW 20:59:50 17° W
TSX-5 3.7 20:56:18 16° S 20:58:38 56° ESE 21:01:47 10° NNE
Cosmos 1844 Rocket 3.7 20:56:12 19° WSW 20:59:06 29° WNW 21:03:56 10° N
Cosmos 2278 Rocket 2.8 20:54:26 10° S 20:59:56 55° ESE 21:05:28 10° NNE
CZ-4C R/B 3.5 21:04:54 15° SSW 21:07:07 33° W 21:10:13 10° NNW
Cosmos 2315 Rocket 4.1 21:01:15 10° SSW 21:07:28 62° W 21:13:48 10° N
CZ-2C R/B 2.2 21:03:25 10° N 21:08:04 83° WNW 21:12:48 10° SSW
Cosmos 1833 Rocket 4.5 21:03:01 10° N 21:08:12 35° ENE 21:13:19 10° SE
Meteor 2-10 Rocket 3.8 21:04:31 10° S 21:09:42 74° E 21:15:09 10° NNE
BREEZE-M R/B 3.8 21:08:22 10° NW 21:11:01 85° NE 21:20:48 10° SE
Cosmos 1455 2.5 21:07:27 10° S 21:11:17 70° E 21:15:09 10° NNE
Cosmos 1867 4.0 21:06:43 10° NNW 21:12:10 69° ENE 21:17:34 10° SE
ERS-2 2.5 21:10:58 10° S 21:14:24 41° W 21:17:54 10° NNW
Cosmos 1300 4.4 21:14:19 15° W 21:15:39 17° WNW 21:18:14 10° NNW
USA 238 DEB 4.4 21:11:11 10° NNW 21:18:26 67° NE 21:25:55 10° SE
USA 238 4.4 21:11:18 10° NNW 21:18:33 66° NE 21:26:01 10° SE
ALOS 3.5 21:14:26 10° NNE 21:18:54 43° E 21:23:20 10° S
CZ-2C R/B 4.3 21:17:06 10° NNW 21:19:48 19° WNW 21:21:50 13° WSW
SAR-Lupe-4 3.8 21:17:56 10° SSE 21:21:30 76° ENE 21:25:05 10° N
CENTAUR R/B 4.3 21:14:13 10° NNW 21:22:09 51° NE 21:30:39 10° SE
USA 267 4.0 21:15:50 10° ESE 21:22:13 59° NE 21:28:36 10° NW
OAO 2 Rocket 3.6 21:19:20 11° W 21:24:17 56° S 21:29:25 10° ESE
PSLV R/B 4.0 21:20:17 10° N 21:24:26 43° WNW 21:28:31 10° SW
ADEOS Rocket 3.9 21:20:43 10° SSE 21:28:23 78° ENE 21:36:09 10° N
Cosmos 1400 Rocket 2.7 21:26:21 10° SSW 21:30:13 75° W 21:34:06 10° N
Cosmos 1689 Rocket 3.8 21:31:05 10° SE 21:33:48 38° ENE 21:36:31 10° N
Cosmos 2151 4.2 21:30:51 10° N 21:34:58 48° E 21:39:06 10° SSE
SAR-Lupe-1 4.0 21:32:49 10° S 21:36:24 72° W 21:39:57 10° NNW
deb Chang Zheng 4 3.9 21:35:24 10° N 21:39:38 50° WNW 21:43:50 10° SSW
DELTA 2 R/B (1) 4.2 21:34:31 10° SW 21:39:55 50° SSE 21:45:19 10° E
CZ-4B R/B 1.4 21:37:22 10° S 21:40:30 51° W 21:43:34 10° NNW
Lacrosse 5 rocket 1.9 21:36:52 10° WSW 21:41:19 54° NW 21:45:52 10° NE
CZ-4B R/B 4.2 21:37:07 10° NNE 21:41:28 49° E 21:45:37 10° S
ASTEX 1 3.6 21:36:41 10° N 21:41:36 77° E 21:46:30 10° S
FENGYUN 3A 3.8 21:42:02 10° NNE 21:47:27 87° ESE 21:52:49 10° SSW
